GW1261 Weather Reports


Display with metric or nautical units.
time (UTC)temp
F
wind
direction
speed
MPH
gust
MPH
rain 1hr
in
rain 24hr
in
rain mn
in
humidity
%
barometer
mb
20260831150858 77 196 0.0 0.0 0.00 0.00 0.00 99 975.2
20260831150353 77 196 0.0 0.0 0.00 0.00 0.00 99 975.1
20260831145852 77 195 0.0 0.0 0.00 0.00 0.00 99 975.1
20260831145349 77 196 0.0 0.0 0.00 0.00 0.00 99 975.1
20260831144844 77 193 0.0 0.0 0.00 0.00 0.00 99 974.8
20260831144340 77 195 0.0 0.0 0.00 0.00 0.00 99 974.7
20260831143835 77 195 0.0 0.0 0.00 0.00 0.00 99 974.5
20260831143330 77 195 0.0 0.0 0.00 0.00 0.00 99 974.4
20260831142825 77 195 0.0 0.0 0.00 0.00 0.00 99 974.4
20260831142321 77 175 0.0 0.0 0.00 0.00 0.00 99 974.4
20260831141820 78 184 0.0 0.0 0.00 0.00 0.00 99 974.4
20260831141315 78 192 0.0 0.0 0.00 0.00 0.00 99 974.3
20260831140810 78 171 0.0 0.0 0.00 0.00 0.00 99 974.0
20260831140304 78 180 0.0 0.0 0.00 0.00 0.00 99 974.2
20260831135802 78 172 0.0 0.0 0.00 0.00 0.00 99 974.1
20260831135258 78 171 0.0 0.0 0.00 0.00 0.00 99 973.9
20260831134753 77 192 0.0 0.0 0.00 0.00 0.00 99 973.9
20260831134250 77 192 0.0 0.0 0.00 0.00 0.00 99 973.6
20260831133749 77 192 0.0 0.0 0.00 0.00 0.00 99 973.8
20260831133249 78 195 0.0 0.0 0.00 0.00 0.00 99 973.6
20260831132744 78 195 0.0 0.0 0.00 0.00 0.00 99 973.6
20260831132239 78 196 0.0 0.0 0.00 0.00 0.00 99 973.6
20260831131738 78 196 0.0 0.0 0.00 0.00 0.00 99 973.6
20260831131235 78 196 0.0 0.0 0.00 0.00 0.00 99 973.5
20260831130730 78 196 0.0 0.0 0.00 0.00 0.00 99 973.7
20260831130225 78 196 0.0 0.0 0.00 0.00 0.00 99 973.4
20260831125723 78 196 0.0 0.0 0.00 0.00 0.00 99 973.6
20260831125220 78 196 0.0 0.0 0.00 0.00 0.00 99 973.5
20260831124714 78 196 0.0 0.0 0.00 0.00 0.00 99 973.4
20260831124211 78 195 0.0 0.0 0.00 0.00 0.00 99 973.3
20260831123710 78 170 0.0 0.0 0.00 0.00 0.00 99 973.4
20260831123209 78 181 0.0 0.0 0.00 0.00 0.00 99 973.0
20260831122704 79 186 0.0 0.0 0.00 0.00 0.00 99 973.0
20260831122200 79 186 0.0 0.0 0.00 0.00 0.00 99 973.0
20260831121659 79 186 0.0 0.0 0.00 0.00 0.00 99 972.9
20260831121155 79 182 0.0 0.0 0.00 0.00 0.00 99 973.0
20260831120650 79 164 0.0 1.0 0.00 0.00 0.00 98 972.8
20260831120145 80 164 0.0 0.0 0.00 0.00 0.00 98 972.6
20260831115641 80 164 0.0 0.0 0.00 0.00 0.00 97 972.5
20260831115137 80 150 0.0 3.0 0.00 0.00 0.00 96 972.4
20260831114636 80 155 1.0 1.0 0.00 0.00 0.00 96 972.4
20260831114131 80 137 0.0 1.0 0.00 0.00 0.00 96 972.4
20260831113630 81 76 1.0 2.0 0.00 0.00 0.00 95 972.3
20260831113126 82 79 1.0 2.0 0.00 0.00 0.00 93 972.3
20260831112625 82 154 0.0 1.0 0.00 0.00 0.00 90 972.2
20260831112120 82 117 0.0 1.0 0.00 0.00 0.00 89 972.1
20260831111616 82 211 0.0 0.0 0.00 0.00 0.00 92 972.1
20260831111112 82 211 0.0 0.0 0.00 0.00 0.00 92 972.1
20260831110607 82 211 0.0 0.0 0.00 0.00 0.00 91 972.1
20260831105601 83 205 0.0 0.0 0.00 0.00 0.00 90 971.9
20260831105055 83 204 0.0 0.0 0.00 0.00 0.00 91 972.0
20260831072510 84 219 0.0 0.0 0.00 0.00 0.00 92 972.1
20260831072006 84 219 0.0 0.0 0.00 0.00 0.00 92 972.1
20260831071505 84 219 0.0 0.0 0.00 0.00 0.00 92 972.2
20260831071000 84 203 0.0 0.0 0.00 0.00 0.00 95 972.4
20260831070459 84 203 0.0 0.0 0.00 0.00 0.00 95 972.2
20260831065958 84 203 0.0 0.0 0.00 0.00 0.00 95 972.5
20260831065457 84 203 0.0 0.0 0.00 0.00 0.00 95 972.4
20260831064951 84 203 0.0 0.0 0.00 0.00 0.00 95 972.5
20260831064441 84 183 0.0 0.0 0.00 0.00 0.00 93 972.5
20260831063936 84 181 0.0 0.0 0.00 0.00 0.00 94 972.4
20260831063431 84 181 0.0 0.0 0.00 0.00 0.00 92 972.4
20260831062925 84 176 0.0 0.0 0.00 0.00 0.00 88 972.6
20260831062422 84 181 0.0 0.0 0.00 0.00 0.00 94 972.6
20260831061920 84 181 0.0 0.0 0.00 0.00 0.00 93 972.7
20260831061419 84 170 0.0 0.0 0.00 0.00 0.00 93 973.0
20260831060915 84 170 0.0 0.0 0.00 0.00 0.00 94 973.1
20260831060410 84 170 0.0 0.0 0.00 0.00 0.00 91 972.8
20260831055909 84 161 0.0 0.0 0.00 0.00 0.00 91 973.1
20260831055404 84 154 0.0 1.0 0.00 0.00 0.00 91 973.2
20260831054900 83 180 0.0 0.0 0.00 0.00 0.00 95 973.2
20260831054355 82 180 0.0 0.0 0.00 0.00 0.00 96 973.4
20260831053854 83 180 0.0 0.0 0.00 0.00 0.00 98 973.2
20260831053352 83 181 0.0 0.0 0.00 0.00 0.00 99 973.5
20260831052847 83 84 0.0 0.0 0.00 0.00 0.00 95 973.5
20260831052346 82 210 0.0 0.0 0.00 0.00 0.00 99 973.4
20260831051845 82 195 0.0 0.0 0.00 0.00 0.00 99 973.8
20260831051343 81 216 0.0 0.0 0.00 0.00 0.00 99 973.9
20260831050838 80 217 0.0 0.0 0.00 0.00 0.00 99 973.7
20260831050337 79 173 0.0 0.0 0.00 0.00 0.00 99 973.8
20260831045832 79 177 0.0 0.0 0.00 0.00 0.00 99 974.0
20260831045326 79 177 0.0 0.0 0.00 0.00 0.00 99 973.9
20260831044821 79 177 0.0 0.0 0.00 0.00 0.00 99 974.0
20260831044316 79 193 0.0 0.0 0.00 0.00 0.00 99 974.0
20260831043812 77 177 0.0 0.0 0.00 0.00 0.00 99 974.1
20260831043311 77 177 0.0 0.0 0.00 0.00 0.00 99 974.2
20260831042806 77 177 0.0 0.0 0.00 0.00 0.00 99 974.0
20260831042300 77 177 0.0 0.0 0.00 0.00 0.00 99 974.2
20260831041756 77 177 0.0 0.0 0.00 0.00 0.00 99 974.3
20260831041255 77 177 0.0 0.0 0.00 0.00 0.00 99 974.2
20260831040750 78 199 0.0 0.0 0.00 0.00 0.00 99 974.3
20260831040249 78 199 0.0 0.0 0.00 0.00 0.00 99 974.4
20260831035748 78 199 0.0 0.0 0.00 0.00 0.00 99 974.4
20260831035247 78 199 0.0 0.0 0.00 0.00 0.00 99 974.5
20260831034746 78 199 0.0 0.0 0.00 0.00 0.00 99 974.5
20260831034242 78 199 0.0 0.0 0.00 0.00 0.00 99 974.7
20260831033737 78 199 0.0 0.0 0.00 0.00 0.00 99 974.6
20260831033237 78 199 0.0 0.0 0.00 0.00 0.00 99 974.6
20260831032732 78 199 0.0 0.0 0.00 0.00 0.00 99 975.1
20260831032227 78 196 0.0 0.0 0.00 0.00 0.00 99 974.7
20260831031722 78 202 0.0 0.0 0.00 0.00 0.00 99 974.9
20260831031217 78 202 0.0 0.0 0.00 0.00 0.00 99 974.9
20260831030716 78 202 0.0 0.0 0.00 0.00 0.00 99 974.8
20260831030214 78 202 0.0 0.0 0.00 0.00 0.00 99 974.7
20260831025708 78 202 0.0 0.0 0.00 0.00 0.00 99 975.0
20260831025203 78 202 0.0 0.0 0.00 0.00 0.00 99 974.8
20260831024659 78 202 0.0 0.0 0.00 0.00 0.00 99 974.8
20260831024157 78 202 0.0 0.0 0.00 0.00 0.00 99 974.9
20260831023656 77 216 0.0 0.0 0.00 0.00 0.00 99 974.7
20260831023155 77 216 0.0 0.0 0.00 0.00 0.00 99 974.7
20260831022651 77 215 0.0 0.0 0.00 0.00 0.00 99 975.0
20260831022145 78 211 0.0 0.0 0.00 0.00 0.00 99 974.7
20260831021644 78 211 0.0 0.0 0.00 0.00 0.00 99 974.7
20260831021134 78 211 0.0 0.0 0.00 0.00 0.00 99 974.7
20260831020630 78 211 0.0 0.0 0.00 0.00 0.00 99 974.7
20260831020124 78 211 0.0 0.0 0.00 0.00 0.00 99 974.8
20260831015615 78 211 0.0 0.0 0.00 0.00 0.00 99 974.9
20260831015114 78 211 0.0 0.0 0.00 0.00 0.00 99 974.8
20260831014609 77 211 0.0 0.0 0.00 0.00 0.00 99 974.7
20260831014105 77 211 0.0 0.0 0.00 0.00 0.00 99 974.8
20260831013601 76 211 0.0 0.0 0.00 0.00 0.00 99 974.6
20260831013100 77 201 0.0 0.0 0.00 0.00 0.00 99 974.7
20260831012554 77 210 0.0 0.0 0.00 0.00 0.00 99 974.5
20260831012049 77 211 0.0 0.0 0.00 0.00 0.00 99 974.6
20260831011549 76 210 0.0 0.0 0.00 0.00 0.00 99 974.6
20260831011044 76 214 0.0 0.0 0.00 0.00 0.00 99 974.6
20260831010539 76 213 0.0 0.0 0.00 0.00 0.00 99 974.6
20260831010036 76 213 0.0 0.0 0.00 0.00 0.00 99 974.2
20260831005531 76 212 0.0 0.0 0.00 0.00 0.00 99 974.2
20260831005030 76 212 0.0 0.0 0.00 0.00 0.00 99 974.3
20260831004527 76 203 0.0 0.0 0.00 0.00 0.00 99 974.2
20260831004022 76 203 0.0 0.0 0.00 0.00 0.00 99 974.4
20260831003518 75 203 0.0 0.0 0.00 0.00 0.00 99 974.2
20260831003014 75 203 0.0 0.0 0.00 0.00 0.00 99 974.3
20260831002512 75 203 0.0 0.0 0.00 0.00 0.00 99 974.0
20260831002008 75 200 0.0 0.0 0.00 0.00 0.00 99 974.2
20260831001503 75 200 0.0 0.0 0.00 0.00 0.00 99 974.1
20260831000959 75 200 0.0 0.0 0.00 0.00 0.00 99 974.1
20260831000455 75 200 0.0 0.0 0.00 0.00 0.00 99 974.0
20260830235953 75 200 0.0 0.0 0.00 0.00 0.00 99 974.2
20260830235448 75 200 0.0 0.0 0.00 0.00 0.00 99 974.0
20260830234944 75 200 0.0 0.0 0.00 0.00 0.00 99 974.1
20260830234438 74 208 0.0 0.0 0.00 0.00 0.00 99 973.7
20260830233934 74 208 0.0 0.0 0.00 0.00 0.00 99 973.8
20260830233430 74 208 0.0 0.0 0.00 0.00 0.00 99 973.5
20260830232925 74 208 0.0 0.0 0.00 0.00 0.00 99 973.4
20260830232421 74 208 0.0 0.0 0.00 0.00 0.00 99 973.6
20260830231917 74 208 0.0 0.0 0.00 0.00 0.00 99 973.3
20260830231412 74 208 0.0 0.0 0.00 0.00 0.00 99 973.4
20260830230911 74 208 0.0 0.0 0.00 0.00 0.00 99 973.5
20260830230407 74 208 0.0 0.0 0.00 0.00 0.00 99 973.6
20260830225906 74 208 0.0 0.0 0.00 0.00 0.00 99 973.4
20260830225402 74 208 0.0 0.0 0.00 0.00 0.00 99 973.3
20260830224856 74 208 0.0 0.0 0.00 0.00 0.00 99 973.2
20260830224355 74 208 0.0 0.0 0.00 0.00 0.00 99 973.2
20260830223852 74 208 0.0 0.0 0.00 0.00 0.00 99 973.1
20260830223348 74 208 0.0 0.0 0.00 0.00 0.00 99 973.1
20260830222847 75 208 0.0 0.0 0.00 0.00 0.00 99 972.8
20260830222343 75 208 0.0 0.0 0.00 0.00 0.00 99 972.9
20260830221838 75 208 0.0 0.0 0.00 0.00 0.00 99 972.9
20260830221335 75 208 0.0 0.0 0.00 0.00 0.00 99 972.8
20260830220830 75 208 0.0 0.0 0.00 0.00 0.00 99 972.8
20260830220324 75 208 0.0 0.0 0.00 0.00 0.00 99 973.0
20260830215822 75 208 0.0 0.0 0.00 0.00 0.00 99 972.9
20260830215317 75 208 0.0 0.0 0.00 0.00 0.00 99 972.8
20260830214812 75 208 0.0 0.0 0.00 0.00 0.00 99 972.9
20260830214307 75 208 0.0 0.0 0.00 0.00 0.00 99 972.7
20260830213806 75 208 0.0 0.0 0.00 0.00 0.00 99 972.7
20260830213301 74 208 0.0 0.0 0.00 0.00 0.00 99 972.7
20260830212757 75 208 0.0 0.0 0.00 0.00 0.00 99 972.8
20260830212253 74 208 0.0 0.0 0.00 0.00 0.00 99 972.7
20260830211752 74 208 0.0 0.0 0.00 0.00 0.00 99 972.8
20260830211251 74 208 0.0 0.0 0.00 0.00 0.00 99 972.9
20260830210748 74 208 0.0 0.0 0.00 0.00 0.00 99 972.8
20260830210246 75 208 0.0 0.0 0.00 0.00 0.00 99 972.9
20260830205744 74 208 0.0 0.0 0.00 0.00 0.00 99 972.8
20260830205239 75 208 0.0 0.0 0.00 0.00 0.00 99 972.9
20260830204734 75 208 0.0 0.0 0.00 0.00 0.00 99 972.8
20260830204233 75 208 0.0 0.0 0.00 0.00 0.00 99 972.8
20260830203729 75 208 0.0 0.0 0.00 0.00 0.00 99 972.7
20260830203225 75 208 0.0 0.0 0.00 0.00 0.00 99 972.7
20260830202724 75 208 0.0 0.0 0.00 0.00 0.00 99 972.7
20260830202220 75 208 0.0 0.0 0.00 0.00 0.00 99 973.1
20260830201719 75 208 0.0 0.0 0.00 0.00 0.00 99 972.8
20260830201214 75 208 0.0 0.0 0.00 0.00 0.00 99 972.8
20260830200710 75 208 0.0 0.0 0.00 0.00 0.00 99 972.8
20260830200209 75 208 0.0 0.0 0.00 0.00 0.00 99 972.9
20260830195704 75 208 0.0 0.0 0.00 0.00 0.00 99 972.8
20260830195202 75 208 0.0 0.0 0.00 0.00 0.00 99 972.8
20260830194701 75 208 0.0 0.0 0.00 0.00 0.00 99 973.1
20260830194156 75 208 0.0 0.0 0.00 0.00 0.00 99 972.9
20260830193650 75 208 0.0 0.0 0.00 0.00 0.00 99 973.1
20260830193145 75 208 0.0 0.0 0.00 0.00 0.00 99 972.9
20260830192640 75 204 0.0 0.0 0.00 0.00 0.00 99 973.2
20260830192135 75 204 0.0 0.0 0.00 0.00 0.00 99 973.2
20260830191631 74 204 0.0 0.0 0.00 0.00 0.00 99 973.2
20260830191126 74 200 0.0 0.0 0.00 0.00 0.00 99 973.0
20260830190621 74 196 0.0 0.0 0.00 0.00 0.00 99 973.4
20260830190115 74 196 0.0 0.0 0.00 0.00 0.00 99 973.2
20260830185609 74 192 0.0 0.0 0.00 0.00 0.00 99 973.3
20260830185105 74 194 0.0 0.0 0.00 0.00 0.00 99 973.0
20260830184603 74 204 0.0 0.0 0.00 0.00 0.00 99 973.4
20260830184058 74 204 0.0 0.0 0.00 0.00 0.00 99 973.2
20260830183552 74 204 0.0 0.0 0.00 0.00 0.00 99 973.3
20260830183048 74 208 0.0 0.0 0.00 0.00 0.00 99 973.4
20260830182538 74 208 0.0 0.0 0.00 0.00 0.00 99 973.5
20260830182034 75 208 0.0 0.0 0.00 0.00 0.00 99 973.5
20260830181530 75 208 0.0 0.0 0.00 0.00 0.00 99 973.5
20260830181029 75 208 0.0 0.0 0.00 0.00 0.00 99 973.4
20260830180524 75 208 0.0 0.0 0.00 0.00 0.00 99 973.5
20260830180023 75 208 0.0 0.0 0.00 0.00 0.00 99 973.5
20260830175522 75 208 0.0 0.0 0.00 0.00 0.00 99 973.4
20260830175018 75 208 0.0 0.0 0.00 0.00 0.00 99 973.4
20260830174513 75 208 0.0 0.0 0.00 0.00 0.00 99 973.5
20260830174008 75 208 0.0 0.0 0.00 0.00 0.00 99 973.8
20260830173503 75 208 0.0 0.0 0.00 0.00 0.00 99 973.9
20260830172958 75 208 0.0 0.0 0.00 0.00 0.00 99 974.0
20260830172455 75 208 0.0 0.0 0.00 0.00 0.00 99 974.0
20260830171950 75 208 0.0 0.0 0.00 0.00 0.00 99 974.0
20260830171445 75 208 0.0 0.0 0.00 0.00 0.00 99 974.1
20260830170945 75 208 0.0 0.0 0.00 0.00 0.00 99 973.9
20260830170440 75 208 0.0 0.0 0.00 0.00 0.00 99 973.9
20260830165938 75 208 0.0 0.0 0.00 1.02 1.02 99 974.1
20260830165435 75 208 0.0 0.0 0.00 1.02 1.02 99 974.1
20260830164931 75 208 0.0 0.0 0.00 1.02 1.02 99 974.3
20260830164426 75 208 0.0 0.0 0.00 1.02 1.02 99 974.3
20260830163922 75 208 0.0 0.0 0.00 1.02 1.02 99 974.4
20260830163419 75 208 0.0 0.0 0.00 1.02 1.02 99 974.5
20260830162918 75 208 0.0 0.0 0.00 1.02 1.02 99 974.4
20260830162414 75 208 0.0 0.0 0.00 1.02 1.02 99 974.7
20260830161908 75 208 0.0 0.0 0.00 1.02 1.02 99 974.7
20260830161408 75 208 0.0 0.0 0.00 1.02 1.02 99 974.7
20260830160903 75 208 0.0 0.0 0.00 1.02 1.02 99 974.8
20260830160359 75 208 0.0 0.0 0.00 1.02 1.02 99 974.9
20260830155854 75 208 0.0 0.0 0.00 1.02 1.02 99 974.7
20260830155350 75 208 0.0 0.0 0.00 1.02 1.02 99 974.9
20260830154845 75 208 0.0 0.0 0.00 1.02 1.02 99 974.9
20260830154341 75 208 0.0 0.0 0.00 1.02 1.02 99 974.8
20260830153838 75 208 0.0 0.0 0.00 1.02 1.02 99 975.0
20260830153333 75 208 0.0 0.0 0.00 1.02 1.02 99 975.0
20260830152831 75 208 0.0 0.0 0.00 1.02 1.02 99 975.1
20260830152326 75 208 0.0 0.0 0.00 1.02 1.02 99 974.9
20260830151821 75 208 0.0 0.0 0.00 1.02 1.02 99 975.1
20260830151320 75 208 0.0 0.0 0.00 1.02 1.02 99 974.6